Change the Weather History Date:

Saturday, February 2, 2013

  Actual Average Record
Temperature  
Mean Temperature 58 °F -  
Max Temperature 75 °F 67 °F 78 °F (2000)
Min Temperature 42 °F 45 °F 33 °F (2005)
Degree Days  
Heating Degree Days 6    
Growing Degree Days 8 (Base 50)    
Moisture  
Dew Point 39 °F    
Average Humidity 50    
Maximum Humidity 82    
Minimum Humidity 12    
Precipitation  
Precipitation 0.00 in 0.05 in - ()
Sea Level Pressure  
Sea Level Pressure 30.24 in    
Wind  
Wind Speed 4 mph ()    
Max Wind Speed 15 mph    
Max Gust Speed -    
Visibility 5.8 miles    
Events      
Averages and records for this station are not official NWS values.
T = Trace of Precipitation, MM = Missing Value Source: Averaged Metar Reports

Daily Weather History Graph

Daily Weather History Graph

Search for Another Location

Airport or City:

Trip Planner

Search our weather history database for the weather conditions in past years. The results will help you decide how hot, cold, wet, or windy it might be!

Date:

Astronomy

Feb. 02, 2013 Rise Set
Actual Time 7:24 AM WET 6:07 PM WET
Civil Twilight 6:58 AM WET 6:33 PM WET
Nautical Twilight 6:29 AM WET 7:02 PM WET
Astronomical Twilight 6:01 AM WET 7:30 PM WET
Moon No Moon Rise 10:54 AM WET (2/2)
Length of Visible Light 11h 34m
Length of Day
10h 43m
Waning Gibbous, 62% of the Moon is Illuminated
Feb 2
Waning Gibbous
Feb 3
Last Quarter
Feb 10
New
Feb 17
First Quarter
Feb 25
Full

Hourly Weather History & Observations

Time (WET) Temp. Windchill Dew Point Humidity Pressure Visibility Wind Dir Wind Speed Gust Speed Precip Events Conditions
12:00 AM 53 °F - 37 °F 42% 30.33 in 6 mi Calm Calm - -  
12:00 AM 53.6 °F - 37.4 °F 54% 30.33 in - Calm Calm - N/A   Clear
1:00 AM 53.6 °F - 37.4 °F 54% 30.30 in - Calm Calm - N/A   Clear
1:30 AM 51.8 °F - 37.4 °F 58% 30.30 in - South 2.3 mph - N/A   Clear
2:00 AM 53.6 °F - 37.4 °F 54% 30.27 in - South 4.6 mph - N/A   Clear
2:30 AM 51.8 °F - 37.4 °F 58% 30.27 in - West 4.6 mph - N/A   Clear
3:00 AM 49 °F - 36 °F 51% 30.30 in 6 mi West 4.6 mph - -  
3:00 AM 50.0 °F - 35.6 °F 58% 30.27 in - WSW 4.6 mph - N/A   Clear
3:30 AM 50.0 °F - 37.4 °F 62% 30.27 in - Variable 2.3 mph - N/A   Clear
4:00 AM 50.0 °F - 37.4 °F 62% 30.27 in - Variable 2.3 mph - N/A   Clear
4:30 AM 48.2 °F - 37.4 °F 66% 30.27 in - South 2.3 mph - N/A   Clear
5:00 AM 48.2 °F - 37.4 °F 66% 30.24 in - Variable 2.3 mph - N/A   Clear
5:30 AM 46.4 °F - 35.6 °F 66% 30.27 in - Calm Calm - N/A   Clear
6:00 AM 47 °F - 37 °F 58% 30.30 in 6 mi East 1.2 mph - -  
6:00 AM 46.4 °F - 37.4 °F 71% 30.27 in - Calm Calm - N/A   Clear
6:30 AM 46.4 °F - 37.4 °F 71% 30.24 in - Variable 2.3 mph - N/A   Clear
7:00 AM 46.4 °F 45.2 °F 37.4 °F 71% 30.24 in - SSE 3.5 mph - N/A   Clear
7:30 AM 46.4 °F - 37.4 °F 71% 30.24 in - Variable 2.3 mph - N/A   Clear
8:00 AM 48.2 °F - 39.2 °F 71% 30.24 in - NNE 2.3 mph - N/A   Clear
8:30 AM 53.6 °F - 41.0 °F 62% 30.27 in - NNE 3.5 mph - N/A   Clear
9:00 AM 58 °F - 41 °F 43% 30.27 in 4 mi ENE 1.2 mph - -  
9:00 AM 57.2 °F - 41.0 °F 55% 30.27 in 4.3 mi Variable 1.2 mph - N/A   Unknown
9:30 AM 57.2 °F - 41.0 °F 55% 30.27 in 5.6 mi ESE 5.8 mph - N/A   Unknown
10:00 AM 59.0 °F - 39.2 °F 48% 30.30 in - ESE 3.5 mph - N/A   Clear
10:30 AM 62.6 °F - 41.0 °F 45% 30.30 in - South 3.5 mph - N/A   Clear
11:00 AM 66.2 °F - 41.0 °F 40% 30.30 in - SSW 3.5 mph - N/A   Clear
11:30 AM 68.0 °F - 39.2 °F 35% 30.27 in - NNE 3.5 mph - N/A   Clear
12:00 PM 71 °F - 37 °F 18% 30.23 in 6 mi NNE 4.6 mph - -  
12:00 PM 71.6 °F - 37.4 °F 29% 30.27 in - NNE 3.5 mph - N/A   Clear
12:30 PM 69.8 °F - 35.6 °F 28% 30.27 in - North 9.2 mph - N/A   Clear
1:00 PM 71.6 °F - 39.2 °F 31% 30.24 in - North 6.9 mph - N/A   Clear
1:30 PM 71.6 °F - 33.8 °F 25% 30.21 in - NNE 9.2 mph - N/A   Clear
2:00 PM 71.6 °F - 33.8 °F 25% 30.21 in - NE 8.1 mph - N/A   Clear
2:30 PM 71.6 °F - 32.0 °F 23% 30.21 in - NNE 9.2 mph - N/A   Clear
3:00 PM 73 °F - 32 °F 12% 30.14 in 6 mi NNE 8.1 mph - -  
3:00 PM 73.4 °F - 30.2 °F 20% 30.18 in - NE 8.1 mph - N/A   Clear
3:30 PM 71.6 °F - 32.0 °F 23% 30.18 in - NNE 10.4 mph - N/A   Clear
4:00 PM 71.6 °F - 28.4 °F 20% 30.18 in - NE 9.2 mph - N/A   Clear
4:30 PM 71.6 °F - 32.0 °F 23% 30.18 in - NNE 11.5 mph - N/A   Clear
5:00 PM 71.6 °F - 33.8 °F 25% 30.18 in - NNE 11.5 mph - N/A   Clear
5:30 PM 69.8 °F - 35.6 °F 28% 30.18 in - NE 9.2 mph - N/A   Clear
6:00 PM 66 °F - 36 °F 22% 30.14 in 6 mi NE 8.1 mph - -   Clear
6:00 PM 68.0 °F - 35.6 °F 30% 30.18 in - NE 8.1 mph - N/A   Clear
6:30 PM 64.4 °F - 37.4 °F 37% 30.18 in - NNE 10.4 mph - N/A   Clear
7:00 PM 62.6 °F - 42.8 °F 48% 30.18 in - NNE 12.7 mph - N/A   Clear
7:30 PM 60.8 °F - 44.6 °F 55% 30.18 in - NNE 10.4 mph - N/A   Clear
8:00 PM 60.8 °F - 44.6 °F 55% 30.18 in - NE 11.5 mph - N/A   Clear
8:30 PM 59.0 °F - 44.6 °F 59% 30.21 in - NNE 9.2 mph - N/A   Clear
9:00 PM 57 °F - 49 °F 67% 30.21 in 6 mi NNE 9.2 mph - -  
9:00 PM 57.2 °F - 50.0 °F 77% 30.21 in - NNE 10.4 mph - N/A   Clear
9:30 PM 55.4 °F - 50.0 °F 82% 30.21 in 6.2 mi NNE 12.7 mph - N/A   Partly Cloudy
10:00 PM 55.4 °F - 50.0 °F 82% 30.21 in 6.2 mi ENE 12.7 mph - N/A   Partly Cloudy
10:30 PM 55.4 °F - 50.0 °F 82% 30.21 in 6.2 mi NE 12.7 mph - N/A   Partly Cloudy
11:00 PM 55.4 °F - 50.0 °F 82% 30.21 in 6.2 mi ENE 12.7 mph - N/A   Mostly Cloudy
11:30 PM 55.4 °F - 50.0 °F 82% 30.21 in 6.2 mi ENE 15.0 mph - N/A   Mostly Cloudy